Location: Unspecified
(52.4292°N, 19.3359°E)
Time: 15:21:50
(UTC+01:00)

A-11 Canister half - Pass Details

Date: 19 October 2025
Orbit: 1526 x 1682 km, 47.3° (Epoch: 13 November)

Event Time Altitude Azimuth Distance (km) Brightness Sun altitude
Exits shadow 01:57:36 24° 104° (ESE) 2,749 10.3 -43.8°
Drops below altitude 10° 02:01:38 10° 84° (E) 3,696 11.3 -43.5°
Sets 02:05:02 0° 75° (ENE) 4,684 12.1 -43.2°
